| time (UTC) | temp F | wind direction | speed MPH | gust MPH | rain 1hr in | rain 24hr in | rain mn in | humidity % | barometer mb |
| 20260508121557 | 51 | 82 | 0.0 | 3.0 | 0.00 | 0.00 | 0.00 | 56 | 1010.0 |
| 20260508120039 | 51 | 271 | 1.0 | 3.0 | 0.00 | 0.00 | 0.00 | 53 | 1010.0 |
| 20260508114538 | 49 | 295 | 0.0 | 2.0 | 0.00 | 0.03 | 0.00 | 58 | 1010.0 |
| 20260508113037 | 47 | 304 | 0.0 | 3.0 | 0.00 | 0.03 | 0.00 | 62 | 1010.0 |
| 20260508111536 | 47 | 298 | 0.0 | 4.0 | 0.00 | 0.03 | 0.00 | 62 | 1009.9 |
| 20260508110045 | 46 | 350 | 0.0 | 2.0 | 0.00 | 0.03 | 0.00 | 62 | 1009.7 |
| 20260508104532 | 44 | 334 | 0.0 | 1.0 | 0.00 | 0.05 | 0.00 | 68 | 1009.7 |
| 20260508103033 | 44 | 334 | 0.0 | 0.0 | 0.00 | 0.05 | 0.00 | 67 | 1009.6 |
| 20260508101531 | 43 | 334 | 0.0 | 1.0 | 0.00 | 0.05 | 0.00 | 68 | 1009.3 |
| 20260508100027 | 42 | 334 | 0.0 | 0.0 | 0.00 | 0.05 | 0.00 | 70 | 1009.1 |
| 20260508094528 | 41 | 334 | 0.0 | 0.0 | 0.00 | 0.08 | 0.00 | 71 | 1009.1 |
| 20260508093025 | 41 | 334 | 0.0 | 0.0 | 0.00 | 0.08 | 0.00 | 71 | 1008.8 |
| 20260508091525 | 40 | 334 | 0.0 | 0.0 | 0.00 | 0.08 | 0.00 | 71 | 1008.7 |
| 20260508090023 | 40 | 334 | 0.0 | 0.0 | 0.00 | 0.08 | 0.00 | 69 | 1008.8 |
| 20260508084522 | 40 | 334 | 0.0 | 2.0 | 0.00 | 0.13 | 0.00 | 69 | 1008.8 |
| 20260508083055 | 41 | 340 | 0.0 | 1.0 | 0.00 | 0.13 | 0.00 | 68 | 1008.7 |
| 20260508081515 | 41 | 340 | 0.0 | 1.0 | 0.00 | 0.13 | 0.00 | 68 | 1008.3 |
| 20260508080016 | 41 | 340 | 0.0 | 0.0 | 0.00 | 0.13 | 0.00 | 68 | 1008.1 |
| 20260508074512 | 41 | 340 | 0.0 | 0.0 | 0.00 | 0.20 | 0.00 | 68 | 1007.8 |
| 20260508073011 | 42 | 342 | 0.0 | 0.0 | 0.00 | 0.20 | 0.00 | 67 | 1007.6 |
| 20260508071508 | 42 | 342 | 0.0 | 1.0 | 0.00 | 0.20 | 0.00 | 66 | 1007.5 |
| 20260508070004 | 44 | 342 | 0.0 | 1.0 | 0.00 | 0.20 | 0.00 | 62 | 1007.3 |
| 20260508064504 | 45 | 342 | 0.0 | 4.0 | 0.00 | 0.21 | 0.00 | 59 | 1007.1 |
| 20260508063100 | 45 | 334 | 0.0 | 2.0 | 0.00 | 0.21 | 0.00 | 60 | 1007.0 |
| 20260508061602 | 45 | 333 | 0.0 | 0.0 | 0.00 | 0.21 | 0.00 | 59 | 1007.1 |
| 20260508054554 | 48 | 333 | 0.0 | 2.0 | 0.00 | 0.21 | 0.00 | 53 | 1007.0 |
| 20260508053047 | 48 | 283 | 0.0 | 3.0 | 0.00 | 0.21 | 0.00 | 52 | 1007.1 |
| 20260508051545 | 49 | 273 | 0.0 | 3.0 | 0.00 | 0.21 | 0.00 | 51 | 1007.2 |
| 20260508050049 | 50 | 275 | 2.0 | 5.0 | 0.00 | 0.21 | 0.00 | 50 | 1007.2 |
| 20260508044541 | 50 | 26 | 0.0 | 4.0 | 0.00 | 0.21 | 0.00 | 50 | 1007.1 |
| 20260508043039 | 50 | 287 | 1.0 | 8.0 | 0.00 | 0.21 | 0.00 | 49 | 1007.2 |
| 20260508041539 | 51 | 31 | 0.0 | 3.0 | 0.00 | 0.21 | 0.00 | 49 | 1007.2 |
| 20260508040037 | 51 | 321 | 0.0 | 2.0 | 0.00 | 0.21 | 0.00 | 51 | 1007.3 |
| 20260508034534 | 51 | 306 | 0.0 | 4.0 | 0.00 | 0.21 | 0.21 | 48 | 1007.3 |
| 20260508033034 | 51 | 249 | 0.0 | 4.0 | 0.00 | 0.21 | 0.21 | 49 | 1007.3 |
| 20260508031533 | 51 | 275 | 0.0 | 2.0 | 0.00 | 0.21 | 0.21 | 49 | 1007.3 |
| 20260508030034 | 51 | 267 | 0.0 | 1.0 | 0.00 | 0.21 | 0.21 | 49 | 1007.4 |
| 20260508024536 | 51 | 252 | 0.0 | 5.0 | 0.00 | 0.21 | 0.21 | 48 | 1007.6 |
| 20260508023036 | 51 | 165 | 0.0 | 3.0 | 0.00 | 0.21 | 0.21 | 49 | 1007.4 |
| 20260508021534 | 50 | 277 | 0.0 | 2.0 | 0.00 | 0.21 | 0.21 | 49 | 1007.5 |
| 20260508020031 | 51 | 271 | 0.0 | 2.0 | 0.00 | 0.21 | 0.21 | 50 | 1007.5 |
| 20260508014534 | 51 | 265 | 0.0 | 2.0 | 0.00 | 0.21 | 0.21 | 50 | 1007.5 |
| 20260508013030 | 51 | 265 | 0.0 | 2.0 | 0.00 | 0.21 | 0.21 | 50 | 1007.5 |
| 20260508011544 | 53 | 337 | 0.0 | 4.0 | 0.00 | 0.21 | 0.21 | 47 | 1007.3 |
| 20260508010033 | 53 | 126 | 0.0 | 3.0 | 0.00 | 0.21 | 0.21 | 47 | 1007.1 |
| 20260508004531 | 53 | 345 | 0.0 | 4.0 | 0.00 | 0.21 | 0.21 | 47 | 1006.8 |
| 20260508003036 | 54 | 257 | 0.0 | 4.0 | 0.00 | 0.21 | 0.21 | 47 | 1006.6 |
| 20260508001528 | 55 | 307 | 0.0 | 5.0 | 0.00 | 0.21 | 0.21 | 44 | 1006.0 |
| 20260508000026 | 56 | 306 | 0.0 | 5.0 | 0.00 | 0.21 | 0.21 | 45 | 1006.0 |
| 20260507234526 | 56 | 351 | 1.0 | 8.0 | 0.00 | 0.22 | 0.21 | 43 | 1005.8 |
| 20260507233026 | 57 | 345 | 1.0 | 6.0 | 0.00 | 0.22 | 0.21 | 42 | 1005.7 |
| 20260507231526 | 58 | 313 | 1.0 | 5.0 | 0.00 | 0.22 | 0.21 | 40 | 1005.6 |
| 20260507230025 | 59 | 355 | 2.0 | 6.0 | 0.00 | 0.22 | 0.21 | 38 | 1005.4 |
| 20260507224525 | 59 | 15 | 1.0 | 6.0 | 0.00 | 0.32 | 0.21 | 38 | 1005.2 |
| 20260507223024 | 60 | 272 | 1.0 | 10.0 | 0.00 | 0.32 | 0.21 | 38 | 1005.0 |
| 20260507221524 | 61 | 321 | 1.0 | 11.0 | 0.00 | 0.32 | 0.21 | 37 | 1005.0 |
| 20260507220024 | 61 | 296 | 2.0 | 8.0 | 0.00 | 0.32 | 0.21 | 35 | 1004.9 |
| 20260507214523 | 61 | 346 | 0.0 | 8.0 | 0.00 | 0.35 | 0.21 | 37 | 1004.8 |
| 20260507213029 | 62 | 287 | 1.0 | 9.0 | 0.00 | 0.35 | 0.21 | 36 | 1004.6 |
| 20260507211522 | 62 | 355 | 3.0 | 14.0 | 0.00 | 0.35 | 0.21 | 38 | 1004.4 |
| 20260507210021 | 62 | 355 | 1.0 | 11.0 | 0.00 | 0.35 | 0.21 | 37 | 1004.5 |
| 20260507204520 | 63 | 115 | 0.0 | 8.0 | 0.00 | 0.35 | 0.21 | 35 | 1004.3 |
| 20260507203020 | 63 | 134 | 3.0 | 12.0 | 0.00 | 0.35 | 0.21 | 36 | 1004.3 |
| 20260507201522 | 64 | 19 | 2.0 | 12.0 | 0.00 | 0.35 | 0.21 | 36 | 1004.1 |
| 20260507200030 | 64 | 302 | 2.0 | 9.0 | 0.00 | 0.35 | 0.21 | 35 | 1004.3 |
| 20260507194516 | 64 | 77 | 2.0 | 8.0 | 0.00 | 0.36 | 0.21 | 36 | 1004.4 |
| 20260507193017 | 64 | 5 | 3.0 | 10.0 | 0.00 | 0.36 | 0.21 | 37 | 1004.6 |
| 20260507191512 | 65 | 89 | 2.0 | 9.0 | 0.00 | 0.36 | 0.21 | 39 | 1004.9 |
| 20260507190020 | 64 | 355 | 4.0 | 8.0 | 0.00 | 0.36 | 0.21 | 37 | 1005.0 |
| 20260507184509 | 63 | 288 | 2.0 | 10.0 | 0.00 | 0.36 | 0.21 | 36 | 1005.3 |
| 20260507183016 | 64 | 9 | 2.0 | 9.0 | 0.00 | 0.36 | 0.21 | 36 | 1005.5 |
| 20260507181507 | 63 | 286 | 1.0 | 4.0 | 0.00 | 0.36 | 0.21 | 41 | 1005.6 |
| 20260507180010 | 64 | 92 | 1.0 | 7.0 | 0.00 | 0.36 | 0.21 | 47 | 1005.7 |
| 20260507174503 | 62 | 21 | 1.0 | 9.0 | 0.00 | 0.36 | 0.21 | 50 | 1005.7 |
| 20260507173001 | 63 | 272 | 1.0 | 8.0 | 0.00 | 0.36 | 0.21 | 55 | 1005.8 |
| 20260507171501 | 63 | 123 | 1.0 | 7.0 | 0.00 | 0.36 | 0.21 | 52 | 1005.9 |
| 20260507170059 | 62 | 171 | 3.0 | 5.0 | 0.00 | 0.36 | 0.21 | 51 | 1006.1 |
| 20260507164557 | 63 | 124 | 2.0 | 6.0 | 0.00 | 0.36 | 0.21 | 55 | 1006.3 |
| 20260507163055 | 61 | 360 | 1.0 | 5.0 | 0.00 | 0.36 | 0.21 | 58 | 1006.5 |
| 20260507161556 | 59 | 360 | 0.0 | 5.0 | 0.00 | 0.36 | 0.21 | 64 | 1006.6 |
| 20260507160100 | 61 | 202 | 1.0 | 6.0 | 0.00 | 0.36 | 0.21 | 64 | 1006.8 |
| 20260507154553 | 61 | 208 | 0.0 | 4.0 | 0.00 | 0.36 | 0.21 | 67 | 1006.9 |
| 20260507153055 | 58 | 5 | 0.0 | 5.0 | 0.00 | 0.36 | 0.21 | 68 | 1007.1 |
| 20260507151549 | 58 | 355 | 1.0 | 4.0 | 0.00 | 0.36 | 0.21 | 70 | 1007.1 |
| 20260507150047 | 58 | 323 | 1.0 | 5.0 | 0.00 | 0.36 | 0.21 | 72 | 1007.4 |
| 20260507144550 | 58 | 360 | 2.0 | 10.0 | 0.00 | 0.36 | 0.21 | 72 | 1007.4 |
| 20260507143044 | 57 | 355 | 2.0 | 6.0 | 0.00 | 0.36 | 0.21 | 76 | 1007.5 |
| 20260507141541 | 55 | 31 | 1.0 | 4.0 | 0.00 | 0.36 | 0.21 | 78 | 1007.2 |
| 20260507140100 | 55 | 327 | 0.0 | 4.0 | 0.00 | 0.36 | 0.21 | 81 | 1007.8 |
| 20260507134537 | 54 | 267 | 0.0 | 6.0 | 0.00 | 0.36 | 0.21 | 84 | 1007.9 |
| 20260507133036 | 52 | 355 | 0.0 | 5.0 | 0.00 | 0.36 | 0.21 | 86 | 1007.6 |
| 20260507131537 | 52 | 294 | 0.0 | 3.0 | 0.00 | 0.36 | 0.21 | 86 | 1007.9 |
| 20260507130041 | 52 | 186 | 0.0 | 4.0 | 0.00 | 0.36 | 0.21 | 89 | 1007.5 |
| 20260507124540 | 50 | 321 | 0.0 | 1.0 | 0.00 | 0.36 | 0.21 | 89 | 1007.6 |
| 20260507123038 | 50 | 321 | 0.0 | 0.0 | 0.01 | 0.36 | 0.21 | 89 | 1007.6 |